Content
SEND FEEDBACK

Daily
Averages
Monthly
Summary
Canada

DELTA, BRITISH COLUMBIA


Home > North America > Canada > British Columbia
Elevation: 30 feet     Latitude: 49 10N     Longitude: 123 10W

WEATHER
 
SELECT A DAY
Number of Records: 255,194;   Date Range: 5/15/97 - 12/27/14
 
SHARE

PRINT THIS DATA

[ ← Previous Day ]
WEATHER ALMANAC - OCTOBER 18, 2013
[ Next Day → ]
[ °C ]   °F
Weather ElementAverageHighLow
Temperature47.2 °F50 °F (11:55 am)44.6 °F (7:35 am)
Dewpoint46.9 °F48.2 °F (12:35 am)44.6 °F (7:35 am)
Humidity99.1 %100 % (12:35 am)87 % (11:55 am)
Barometer30.22 in30.26 in (2:35 am)30.16 in (6:35 pm)
Wind Speed2.8 mph6.9 mph (9:35 am)
Weather ElementAverage
Visibility2.9 mi
Wind DirectionSSE (146.5 °)

Weather ElementTotal
Precipitation---
Heating Degree Days17.7 (Base 65)
Averaged from 71 records on October 18, 2013
WEATHER CONDITIONS BREAKOUT
WIND DIRECTION BREAKOUT
WEATHER BY HOUR - OCTOBER 18, 2013
[ °C ]   °F
Local TimeTemperatureDewpointHumidityBarometerVisibilityWind DirectionWind SpeedGust SpeedPrecipitationEventsConditions
12:35 AM48.2 °F48.2 °F100 %30.25 in0.5 miCalmRainLight Rain
12:55 AM48.2 °F48.2 °F100 %30.24 in0.5 miCalmRainLight Rain
1:15 AM48.2 °F48.2 °F100 %30.25 in0.5 miCalmRainLight Rain
1:35 AM48.2 °F48.2 °F100 %30.25 in0.5 miCalmRainLight Rain
1:55 AM48.2 °F48.2 °F100 %30.25 in1.0 miCalmRainLight Rain
2:15 AM48.2 °F48.2 °F100 %30.25 in0.8 miCalmRainLight Rain
2:35 AM48.2 °F48.2 °F100 %30.26 in0.8 miCalmRainLight Rain
2:55 AM48.2 °F48.2 °F100 %30.26 in0.5 miNNW (340°)4.6 mphRainLight Rain
3:15 AM48.2 °F48.2 °F100 %30.26 in0.5 miCalmRainLight Rain
3:35 AM48.2 °F48.2 °F100 %30.25 in0.5 miCalmRainLight Rain
3:55 AM48.2 °F48.2 °F100 %30.25 in0.2 miCalmRainLight Rain
4:15 AM46.4 °F46.4 °F100 %30.25 in0.2 miNorth (350°)4.6 mphRainLight Rain
4:35 AM46.4 °F46.4 °F100 %30.25 in0.5 miCalmRainLight Rain
4:55 AM46.4 °F46.4 °F100 %30.24 in0.2 miCalmRainLight Rain
5:15 AM46.4 °F46.4 °F100 %30.24 in0.5 miNorth (350°)4.6 mphFogFog
5:35 AM46.4 °F46.4 °F100 %30.24 in0.5 miNorth (360°)4.6 mphRainLight Rain
5:55 AM46.4 °F46.4 °F100 %30.24 in0.5 miCalmFogFog
6:15 AM46.4 °F46.4 °F100 %30.23 in0.5 miCalmRainLight Rain
6:35 AM46.4 °F46.4 °F100 %30.23 in1.0 miCalmOvercast
6:55 AM46.4 °F46.4 °F100 %30.24 in3.0 miCalmOvercast
7:15 AM46.4 °F46.4 °F100 %30.24 in5.0 miCalmOvercast
7:35 AM44.6 °F44.6 °F100 %30.24 in5.0 miNorth (10°)3.5 mphOvercast
7:55 AM46.4 °F46.4 °F100 %30.24 in5.0 miCalmOvercast
8:15 AM44.6 °F44.6 °F100 %30.25 in4.0 miNorth (10°)4.6 mphOvercast
8:35 AM46.4 °F46.4 °F100 %30.25 in4.0 miCalmOvercast
8:55 AM46.4 °F46.4 °F100 %30.25 in5.0 miNorth (360°)3.5 mphOvercast
9:15 AM46.4 °F46.4 °F100 %30.25 in5.0 miNorth (10°)5.8 mphOvercast
9:35 AM46.4 °F46.4 °F100 %30.25 in5.0 miNorth (10°)6.9 mphScattered Clouds
9:55 AM46.4 °F46.4 °F100 %30.25 in3.0 miNorth (10°)5.8 mphScattered Clouds
10:15 AM46.4 °F46.4 °F100 %30.25 in4.0 miNorth (10°)5.8 mphMostly Cloudy
10:35 AM46.4 °F46.4 °F100 %30.26 in4.0 miNorth (10°)4.6 mphMostly Cloudy
10:55 AM48.2 °F46.4 °F93 %30.26 in5.0 miNorth (10°)4.6 mphScattered Clouds
11:15 AM48.2 °F46.4 °F93 %30.25 in7.0 miNNE (20°)4.6 mphMostly Cloudy
11:35 AM48.2 °F46.4 °F93 %30.25 in9.0 miNorth (350°)6.9 mphMostly Cloudy
11:55 AM50.0 °F46.4 °F87 %30.25 in10.0 miNorth (350°)5.8 mphPartly Cloudy
12:15 PM50.0 °F48.2 °F94 %30.25 in9.0 miNNW (330°)5.8 mphMostly Cloudy
12:35 PM50.0 °F48.2 °F94 %30.24 in9.0 miNorth (360°)5.8 mphMostly Cloudy
12:55 PM50.0 °F48.2 °F94 %30.24 in9.0 miNNW (340°)6.9 mphMostly Cloudy
1:15 PM50.0 °F48.2 °F94 %30.24 in10.0 miNNW (340°)6.9 mphOvercast
1:35 PM48.2 °F48.2 °F100 %30.23 in9.0 miNNW (340°)6.9 mphOvercast
1:55 PM48.2 °F48.2 °F100 %30.23 in7.0 miNNW (330°)6.9 mphOvercast
2:15 PM48.2 °F48.2 °F100 %30.22 in9.0 miNorth (360°)5.8 mphOvercast
2:35 PM48.2 °F48.2 °F100 %30.22 in10.0 miNNW (330°)6.9 mphOvercast
2:55 PM48.2 °F48.2 °F100 %30.21 in9.0 miNorth (350°)4.6 mphOvercast
3:15 PM48.2 °F48.2 °F100 %30.20 in9.0 miNNW (330°)5.8 mphOvercast
3:35 PM48.2 °F48.2 °F100 %30.20 in7.0 miNNW (330°)4.6 mphOvercast
3:55 PM48.2 °F46.4 °F93 %30.20 in4.0 miNW (320°)3.5 mphOvercast
4:15 PM46.4 °F46.4 °F100 %30.19 in3.0 miNNW (330°)3.5 mphOvercast
4:35 PM46.4 °F46.4 °F100 %30.18 in0.5 miCalmFogFog
4:55 PM46.4 °F46.4 °F100 %30.18 in0.5 miCalmFogFog
5:15 PM48.2 °F48.2 °F100 %30.17 in0.2 miCalmFogFog
5:35 PM46.4 °F46.4 °F100 %30.17 in0.2 miNNW (340°)3.5 mphFogFog
5:55 PM46.4 °F46.4 °F100 %30.17 in0.2 miCalmFogFog
6:15 PM46.4 °F46.4 °F100 %30.17 in0.2 miCalmRainLight Rain
6:35 PM46.4 °F46.4 °F100 %30.16 in0.2 miNorth (360°)5.8 mphRainLight Rain
6:55 PM46.4 °F46.4 °F100 %30.16 in0.2 miCalmRainLight Rain
7:15 PM46.4 °F46.4 °F100 %30.17 in0.2 miNNW (340°)3.5 mphRainLight Rain
7:35 PM46.4 °F46.4 °F100 %30.16 in0.2 miNorth (360°)4.6 mphRainLight Rain
7:55 PM46.4 °F46.4 °F100 %30.16 in0.2 miCalmRainLight Rain
8:15 PM46.4 °F46.4 °F100 %30.16 in0.2 miNNW (330°)4.6 mphRainLight Rain
8:35 PM46.4 °F46.4 °F100 %30.17 in0.2 miNNW (340°)3.5 mphRainLight Rain
8:55 PM46.4 °F46.4 °F100 %30.16 in0.2 miCalmRainLight Rain
9:15 PM46.4 °F46.4 °F100 %30.17 in0.5 miCalmRainLight Rain
9:35 PM46.4 °F46.4 °F100 %30.16 in0.2 miCalmFogFog
9:55 PM46.4 °F46.4 °F100 %30.17 in0.5 miNorth (350°)3.5 mphFogFog
10:15 PM46.4 °F46.4 °F100 %30.17 in0.8 miCalmOvercast
10:35 PM46.4 °F46.4 °F100 %30.17 in0.2 miCalmFogFog
10:55 PM46.4 °F46.4 °F100 %30.17 in0.8 miCalmOvercast
11:15 PM46.4 °F46.4 °F100 %30.17 in0.5 miNorth (350°)4.6 mphRainLight Rain
11:35 PM46.4 °F46.4 °F100 %30.17 in0.5 miNorth (350°)3.5 mphRainLight Rain
11:55 PM46.4 °F46.4 °F100 %30.17 in0.5 miNNW (330°)4.6 mphFogFog
Hourly data recorded from CZBB, located miles away from Delta, British Columbia







STORIES FROM OUR PARTNERS